SCOUT A-1 R/B, 6910

Orbit data source: Space-Track

SCOUT A-1 R/B, 6910 is space debris in LEO originally from a launch on Tue, 30 Oct 1973 UTC launched from the Air Force Western Test Range (AFWTR). Debris objects in space refer to the collection of defunct objects orbiting the Earth. Examples of debris include non-operational satellites, rocket bodies, and fragments generated from explosions, collisions, or faulty payload assembly.

Loading next visibility...
Identifier
6910, 1973-081B
Orbit
LEO
Country
Flag of USUS
Related business
Manufacturer
ABL
Mission
Spacecraft
Bus & Motor
ALTAIR, Unknown motor
Mass
37 kg wet, 37 kg dry
Launch date (UTC)
1973-10-30 (53 years ago)
Launch vehicle
Unknown
Launch site
Air Force Western Test Range (AFWTR)
Object type
Payload
Rocket body
Debris
Shape & HBR
Unknown
Radar Cross Section
Medium (>0.1 m² and <1 m²)

Expand to show TLE details & history
Last TLE update: 2 days ago

TLE from 2 days ago
0 SCOUT A-1 R/B
1  6910U 73081B   26171.22803922  .00000107  00000-0  10366-3 0  9997
2  6910  89.8706 250.0592 0155849 301.6517  56.9521 13.69786864627241
Epoch: 2026-06-20T05:28Z
TLE epoch observation values (Epoch: 2026-06-20T05:28:22.588Z)
Latitude
-0.00009°
Longitude
-100.48059°
Altitude
941.873 km
Speed
7.411 km/s
True Right ascension
16h 40m 14s
True Declination
0° 00' 00"
Sunlit
Object was in full shadow at epoch
Visualization orbit readout
Latitude
Unknown
Longitude
Unknown
Altitude
Unknown
Speed
Unknown
Apparent Right ascension
Unknown
Apparent Declination
Unknown
Sunlit
N/A
Visualization observer readout
Local Sidereal Time
23:07:54
Azimuth
Unknown
Elevation
Unknown
Doppler factor
Unknown
Orbital elements
Apogee altitude
1,112.303 km
Perigee altitude
882.41 km
Semi-major axis
7,375.493 km
Eccentricity
0.01558
Inclination
89.8706°
RAAN
250.0592°
Arg. of periapsis
301.6517°
True anomaly
58.46496°
Mean anomaly
56.9521°
Eccentric anomaly
57.70693°
Mean motion
3.42655 °/min
Orbital period
105.06 mins
BSTAR
0.00010366
Loading maneuver chart data...
Computing Atmospheric mass density...
Loading historical data...
Loading historical data...
Loading historical data...
Loading historical data...
Loading historical data...
Loading historical data...
Loading historical data...
Other satellites on launch #81 in the year 1973 (1973-10-30 UTC)

Documentation

Showing up to 5 results
|